Time,TemperatureF,DewpointF,PressureIn,WindDirection,WindDirectionDegrees,WindSpeedMPH,WindSpeedGustMPH,Humidity,HourlyPrecipIn,Conditions,Clouds,dailyrainin,SoftwareType,DateUTC
2013-08-13 00:12:00,65.0,59.0,29.89,SSW,206,0.0,0.0,80,0.00,,,0.00,,2013-08-13 04:12:00,
2013-08-13 00:23:00,65.0,59.0,29.89,SSW,206,0.0,0.0,80,0.00,,,0.00,,2013-08-13 04:23:00,
2013-08-13 00:53:00,64.0,58.0,29.88,SSW,206,0.0,0.0,82,0.00,,,0.00,,2013-08-13 04:53:00,
2013-08-13 01:12:00,64.0,58.0,29.88,SSW,206,0.0,0.0,82,0.00,,,0.00,,2013-08-13 05:12:00,
2013-08-13 01:21:00,63.0,57.0,29.88,SSW,206,0.0,0.0,82,0.00,,,0.00,,2013-08-13 05:21:00,
2013-08-13 01:52:00,63.0,58.0,29.87,SSW,206,0.0,0.0,83,0.00,,,0.00,,2013-08-13 05:52:00,
2013-08-13 02:21:00,62.0,57.0,29.87,SSW,206,0.0,0.0,84,0.00,,,0.00,,2013-08-13 06:21:00,
2013-08-13 02:52:00,62.0,57.0,29.85,SSW,206,0.0,0.0,84,0.00,,,0.00,,2013-08-13 06:52:00,
2013-08-13 03:21:00,61.0,56.0,29.85,SSW,206,0.0,0.0,85,0.00,,,0.00,,2013-08-13 07:21:00,
2013-08-13 03:52:00,61.0,56.0,29.85,SSW,206,0.0,0.0,85,0.00,,,0.00,,2013-08-13 07:52:00,
2013-08-13 04:22:00,61.0,57.0,29.84,SSW,206,0.0,0.0,86,0.00,,,0.00,,2013-08-13 08:22:00,
2013-08-13 04:52:00,60.0,56.0,29.84,SSW,206,0.0,0.0,86,0.00,,,0.00,,2013-08-13 08:52:00,
2013-08-13 05:22:00,60.0,56.0,29.84,SSW,206,0.0,0.0,87,0.00,,,0.00,,2013-08-13 09:22:00,
2013-08-13 05:54:00,60.0,56.0,29.84,SSW,206,0.0,0.0,87,0.00,,,0.00,,2013-08-13 09:54:00,
2013-08-13 06:23:00,60.0,56.0,29.84,SSW,206,0.0,0.0,87,0.00,,,0.00,,2013-08-13 10:23:00,
2013-08-13 06:53:00,60.0,56.0,29.84,SSW,206,0.0,0.0,88,0.00,,,0.00,,2013-08-13 10:53:00,
2013-08-13 07:11:00,60.0,56.0,29.83,SSW,206,0.0,0.0,88,0.00,,,0.00,,2013-08-13 11:11:00,
2013-08-13 07:22:00,61.0,57.0,29.84,SSW,206,0.0,0.0,88,0.00,,,0.00,,2013-08-13 11:22:00,
2013-08-13 07:52:00,62.0,59.0,29.83,SSW,206,0.0,0.0,89,0.00,,,0.00,,2013-08-13 11:52:00,
2013-08-13 08:21:00,63.0,60.0,29.83,SSW,206,0.0,0.0,89,0.00,,,0.00,,2013-08-13 12:21:00,
2013-08-13 08:52:00,65.0,62.0,29.83,SSW,206,0.0,0.0,89,0.00,,,0.00,,2013-08-13 12:52:00,
2013-08-13 09:22:00,67.0,63.0,29.82,SSW,206,0.0,3.0,87,0.00,,,0.00,,2013-08-13 13:22:00,
2013-08-13 09:52:00,68.0,64.0,29.81,SE,131,0.0,5.0,86,0.00,,,0.00,,2013-08-13 13:52:00,
2013-08-13 10:22:00,70.0,65.0,29.80,NE,38,0.0,7.0,83,0.00,,,0.00,,2013-08-13 14:22:00,
2013-08-13 10:52:00,71.0,65.0,29.80,East,90,0.0,7.0,82,0.00,,,0.00,,2013-08-13 14:52:00,
2013-08-13 11:22:00,72.0,65.0,29.81,South,181,3.0,7.0,78,0.00,,,0.00,,2013-08-13 15:22:00,
2013-08-13 11:54:00,71.0,65.0,29.81,WSW,251,1.0,8.0,80,0.00,,,0.00,,2013-08-13 15:54:00,
2013-08-13 12:23:00,70.0,64.0,29.80,NNE,14,1.0,6.0,81,0.00,,,0.00,,2013-08-13 16:23:00,
2013-08-13 12:54:00,70.0,64.0,29.80,WSW,240,0.0,5.0,81,0.00,,,0.00,,2013-08-13 16:54:00,
2013-08-13 13:27:00,70.0,64.0,29.80,ESE,104,2.0,8.0,81,0.00,,,0.00,,2013-08-13 17:27:00,
2013-08-13 13:46:00,-999.0,-99.9,29.79,SE,142,2.0,8.0,-999,0.00,,,0.00,,2013-08-13 17:46:00,
2013-08-13 13:56:00,71.0,65.0,29.79,SE,142,2.0,8.0,80,0.00,,,0.00,,2013-08-13 17:56:00,
2013-08-13 14:15:00,71.0,64.0,29.79,ENE,67,2.0,7.0,79,0.00,,,0.00,,2013-08-13 18:15:00,
2013-08-13 14:25:00,70.0,63.0,29.79,NNE,32,1.0,6.0,78,0.00,,,0.00,,2013-08-13 18:25:00,
2013-08-13 14:56:00,70.0,62.0,29.78,ENE,73,1.0,5.0,77,0.00,,,0.00,,2013-08-13 18:56:00,
2013-08-13 15:25:00,70.0,62.0,29.76,ESE,102,0.0,3.0,77,0.00,,,0.00,,2013-08-13 19:25:00,
2013-08-13 15:55:00,70.0,62.0,29.75,ESE,109,1.0,5.0,75,0.00,,,0.00,,2013-08-13 19:55:00,
2013-08-13 16:22:00,71.0,62.0,29.74,North,0,0.0,5.0,72,0.00,,,0.00,,2013-08-13 20:22:00,
2013-08-13 16:53:00,71.0,62.0,29.72,ESE,119,0.0,0.0,73,0.00,,,0.00,,2013-08-13 20:53:00,
2013-08-13 17:24:00,71.0,62.0,29.72,ESE,119,0.0,0.0,73,0.00,,,0.00,,2013-08-13 21:24:00,
2013-08-13 17:54:00,71.0,62.0,29.71,ESE,119,0.0,0.0,74,0.00,,,0.00,,2013-08-13 21:54:00,
2013-08-13 18:22:00,71.0,63.0,29.70,ESE,119,0.0,0.0,77,0.00,,,0.00,,2013-08-13 22:22:00,
2013-08-13 18:57:00,70.0,62.0,29.69,ESE,119,0.0,0.0,77,0.00,,,0.00,,2013-08-13 22:57:00,
2013-08-13 19:26:00,70.0,63.0,29.68,ESE,119,0.0,0.0,79,0.00,,,0.00,,2013-08-13 23:26:00,
2013-08-13 19:57:00,70.0,64.0,29.69,ESE,119,0.0,0.0,81,0.00,,,0.00,,2013-08-13 23:57:00,
2013-08-13 20:11:00,69.0,63.0,29.69,ESE,119,0.0,0.0,81,0.00,,,0.00,,2013-08-14 00:11:00,
2013-08-13 20:22:00,69.0,63.0,29.68,ESE,119,0.0,0.0,82,0.00,,,0.00,,2013-08-14 00:22:00,
2013-08-13 20:42:00,69.0,63.0,29.68,ESE,119,0.0,0.0,82,0.00,,,0.00,,2013-08-14 00:42:00,
2013-08-13 20:52:00,68.0,63.0,29.68,ESE,119,0.0,0.0,83,0.00,,,0.00,,2013-08-14 00:52:00,
2013-08-13 21:21:00,68.0,63.0,29.68,ESE,119,0.0,0.0,84,0.00,,,0.00,,2013-08-14 01:21:00,
2013-08-13 21:52:00,67.0,63.0,29.69,ESE,119,0.0,0.0,86,0.00,,,0.00,,2013-08-14 01:52:00,
2013-08-13 22:22:00,67.0,63.0,29.67,ESE,119,0.0,0.0,87,0.00,,,0.00,,2013-08-14 02:22:00,
2013-08-13 22:52:00,66.0,62.0,29.68,ESE,119,0.0,0.0,88,0.00,,,0.00,,2013-08-14 02:52:00,
2013-08-13 23:22:00,66.0,62.0,29.69,NE,52,0.0,0.0,88,0.00,,,0.00,,2013-08-14 03:22:00,
2013-08-13 23:43:00,66.0,62.0,29.68,NE,52,0.0,0.0,88,0.00,,,0.00,,2013-08-14 03:43:00,
2013-08-13 23:53:00,66.0,63.0,29.68,NE,52,0.0,0.0,89,0.00,,,0.00,,2013-08-14 03:53:00,